Private Wetterstation Wechselburg
Wetterdaten: Mittwoch, 22.12.2021
Datum Zeit Temp. +2m Bodentemp. Temp.+5cm Temp. Wind Windchill X Diff Temp. Feuchte +2m Feuchte +5cm Luftdruck Regen Wind Richtung Richtung Sonnenschein Taupunkt Windchill Windben
22.12.2021 00:00 -0,5 C 5,8 C -0,7 C -0,6 C -0,7 C 0,0 C 86 % 90 % 1029,2 hPa 0,0 l/m 0,0 km/h (0 Bft) S-SO 157 0 min -2,5 C -0,7 C 1,8 km/h (1 Bft)
22.12.2021 00:05 -0,5 C 5,9 C -0,7 C -0,6 C -0,7 C 0,0 C 86 % 90 % 1029,2 hPa 0,0 l/m 0,2 km/h (0 Bft) S-SW 202 0 min -2,5 C -0,7 C 0,0 km/h (0 Bft)
22.12.2021 00:10 -0,5 C 5,9 C -0,8 C -0,6 C -0,7 C 0,0 C 86 % 90 % 1029,3 hPa 0,0 l/m 0,2 km/h (0 Bft) S 180 0 min -2,5 C -0,7 C 0,0 km/h (0 Bft)
22.12.2021 00:15 -0,5 C 5,9 C -0,8 C -0,6 C -0,8 C 0,0 C 86 % 89 % 1029,3 hPa 0,0 l/m 0,0 km/h (0 Bft) SW 225 0 min -2,5 C -0,8 C 0,0 km/h (0 Bft)
22.12.2021 00:20 -0,7 C 5,9 C -0,8 C -0,7 C -0,8 C 0,0 C 86 % 90 % 1029,3 hPa 0,0 l/m 0,2 km/h (0 Bft) W-SW 247 0 min -2,7 C -0,8 C 0,0 km/h (0 Bft)
22.12.2021 00:25 -0,7 C 5,9 C -0,8 C -0,8 C -0,9 C 0,0 C 86 % 90 % 1029,3 hPa 0,0 l/m 0,0 km/h (0 Bft) W-SW 247 0 min -2,7 C -0,9 C 0,0 km/h (0 Bft)
22.12.2021 00:30 -0,7 C 5,9 C -0,8 C -0,8 C -0,9 C 0,0 C 86 % 90 % 1029,3 hPa 0,0 l/m 0,0 km/h (0 Bft) W-SW 247 0 min -2,7 C -0,9 C 0,0 km/h (0 Bft)
22.12.2021 00:35 -0,7 C 5,9 C -0,9 C -0,8 C -0,9 C 0,0 C 86 % 90 % 1029,3 hPa 0,0 l/m 0,0 km/h (0 Bft) W-SW 247 0 min -2,7 C -0,9 C 0,0 km/h (0 Bft)
22.12.2021 00:40 -0,7 C 5,9 C -0,9 C -0,8 C -1,0 C 0,0 C 86 % 90 % 1029,3 hPa 0,0 l/m 0,0 km/h (0 Bft) W-SW 247 0 min -2,7 C -1,0 C 0,0 km/h (0 Bft)
22.12.2021 00:45 -0,7 C 5,9 C -0,9 C -0,8 C -1,0 C 0,0 C 86 % 89 % 1029,3 hPa 0,0 l/m 0,0 km/h (0 Bft) W-SW 247 0 min -2,7 C -1,0 C 0,0 km/h (0 Bft)
22.12.2021 00:50 -0,7 C 5,9 C -0,9 C -0,8 C -1,0 C 0,0 C 86 % 89 % 1029,1 hPa 0,0 l/m 0,0 km/h (0 Bft) W-SW 247 0 min -2,7 C -1,0 C 0,0 km/h (0 Bft)
22.12.2021 00:55 -0,8 C 5,9 C -0,9 C -0,9 C -1,0 C 0,0 C 86 % 89 % 1029,1 hPa 0,0 l/m 0,0 km/h (0 Bft) W-SW 247 0 min -2,8 C -1,0 C 0,0 km/h (0 Bft)
22.12.2021 01:00 -0,8 C 5,9 C -0,9 C -0,9 C -1,1 C 0,0 C 86 % 89 % 1029,1 hPa 0,0 l/m 0,0 km/h (0 Bft) W-SW 247 0 min -2,8 C -1,1 C 0,0 km/h (0 Bft)
22.12.2021 01:05 -0,8 C 5,9 C -0,9 C -0,9 C -1,1 C 0,0 C 85 % 90 % 1029,1 hPa 0,0 l/m 0,0 km/h (0 Bft) W-SW 247 0 min -3,0 C -1,1 C 0,0 km/h (0 Bft)
22.12.2021 01:10 -0,8 C 5,9 C -0,9 C -0,9 C -1,1 C 0,0 C 85 % 90 % 1029,1 hPa 0,0 l/m 0,0 km/h (0 Bft) W-SW 247 0 min -3,0 C -1,1 C 0,0 km/h (0 Bft)
22.12.2021 01:15 -0,8 C 5,9 C -0,9 C -0,9 C -1,1 C 0,0 C 85 % 90 % 1029,1 hPa 0,0 l/m 0,0 km/h (0 Bft) W-SW 247 0 min -3,0 C -1,1 C 0,0 km/h (0 Bft)
22.12.2021 01:20 -0,8 C 5,9 C -0,9 C -0,9 C -1,1 C 0,0 C 85 % 90 % 1029,1 hPa 0,0 l/m 0,0 km/h (0 Bft) S 180 0 min -3,0 C -1,1 C 0,0 km/h (0 Bft)
22.12.2021 01:25 -0,8 C 5,9 C -0,9 C -0,9 C -1,0 C 0,0 C 85 % 89 % 1029,1 hPa 0,0 l/m 0,0 km/h (0 Bft) S-SO 157 0 min -3,0 C -1,0 C 0,0 km/h (0 Bft)
22.12.2021 01:30 -0,8 C 5,9 C -1,0 C -0,9 C -1,0 C 0,0 C 85 % 89 % 1028,8 hPa 0,0 l/m 0,0 km/h (0 Bft) SW 225 0 min -3,0 C -1,0 C 0,0 km/h (0 Bft)
22.12.2021 01:35 -0,7 C 5,9 C -0,9 C -0,8 C -1,1 C 0,0 C 85 % 89 % 1028,8 hPa 0,0 l/m 0,0 km/h (0 Bft) SW 225 0 min -2,9 C -1,1 C 0,0 km/h (0 Bft)
22.12.2021 01:40 -0,8 C 5,9 C -0,9 C -0,9 C -1,1 C 0,0 C 85 % 89 % 1028,8 hPa 0,0 l/m 0,0 km/h (0 Bft) SW 225 0 min -3,0 C -1,1 C 0,0 km/h (0 Bft)
22.12.2021 01:45 -0,7 C 5,9 C -0,9 C -0,8 C -1,1 C 0,0 C 85 % 89 % 1028,8 hPa 0,0 l/m 0,0 km/h (0 Bft) W-SW 247 0 min -2,9 C -1,1 C 0,0 km/h (0 Bft)
22.12.2021 01:50 -0,7 C 5,8 C -0,9 C -0,8 C -1,1 C 0,0 C 85 % 89 % 1028,9 hPa 0,0 l/m 0,0 km/h (0 Bft) W-SW 247 0 min -2,9 C -1,1 C 0,0 km/h (0 Bft)
22.12.2021 01:55 -0,9 C 5,8 C -0,9 C -1,0 C -1,1 C 0,0 C 85 % 89 % 1028,9 hPa 0,0 l/m 0,0 km/h (0 Bft) SW 225 0 min -3,1 C -1,1 C 0,0 km/h (0 Bft)
22.12.2021 02:00 -0,7 C 5,8 C -0,9 C -0,8 C -1,1 C 0,0 C 85 % 89 % 1028,9 hPa 0,0 l/m 0,0 km/h (0 Bft) SW 225 0 min -2,9 C -1,1 C 0,0 km/h (0 Bft)
22.12.2021 02:05 -0,7 C 5,8 C -0,9 C -0,8 C -1,1 C 0,0 C 85 % 89 % 1028,9 hPa 0,0 l/m 0,0 km/h (0 Bft) W-SW 247 0 min -2,9 C -1,1 C 0,0 km/h (0 Bft)
22.12.2021 02:10 -0,8 C 5,8 C -0,9 C -0,9 C -1,1 C 0,0 C 85 % 89 % 1028,9 hPa 0,0 l/m 0,0 km/h (0 Bft) W-SW 247 0 min -3,0 C -1,1 C 0,0 km/h (0 Bft)
22.12.2021 02:15 -0,7 C 5,8 C -0,9 C -0,8 C -1,1 C 0,0 C 85 % 89 % 1028,9 hPa 0,0 l/m 0,0 km/h (0 Bft) W-SW 247 0 min -2,9 C -1,1 C 0,0 km/h (0 Bft)
22.12.2021 02:20 -0,8 C 5,8 C -0,9 C -0,9 C -1,1 C 0,0 C 85 % 89 % 1028,9 hPa 0,0 l/m 0,0 km/h (0 Bft) W-SW 247 0 min -3,0 C -1,1 C 0,0 km/h (0 Bft)
22.12.2021 02:25 -0,9 C 5,8 C -0,9 C -1,0 C -1,1 C 0,0 C 85 % 89 % 1028,9 hPa 0,0 l/m 0,0 km/h (0 Bft) W-SW 247 0 min -3,1 C -1,1 C 0,0 km/h (0 Bft)
22.12.2021 02:30 -0,9 C 5,8 C -1,0 C -1,0 C -1,1 C 0,0 C 85 % 89 % 1028,9 hPa 0,0 l/m 0,0 km/h (0 Bft) W-SW 247 0 min -3,1 C -1,1 C 0,0 km/h (0 Bft)
22.12.2021 02:35 -0,7 C 5,8 C -1,0 C -0,8 C -1,1 C 0,0 C 85 % 90 % 1028,9 hPa 0,0 l/m 0,0 km/h (0 Bft) W-SW 247 0 min -2,9 C -1,1 C 0,0 km/h (0 Bft)
22.12.2021 02:40 -0,9 C 5,8 C -1,0 C -1,0 C -1,1 C 0,0 C 85 % 89 % 1028,9 hPa 0,0 l/m 0,0 km/h (0 Bft) W-SW 247 0 min -3,1 C -1,1 C 0,0 km/h (0 Bft)
22.12.2021 02:45 -0,9 C 5,8 C -1,0 C -1,0 C -1,1 C 0,0 C 85 % 89 % 1028,9 hPa 0,0 l/m 0,0 km/h (0 Bft) W-SW 247 0 min -3,1 C -1,1 C 0,0 km/h (0 Bft)
22.12.2021 02:50 -0,9 C 5,8 C -1,0 C -1,0 C -1,1 C 0,0 C 85 % 89 % 1028,9 hPa 0,0 l/m 0,0 km/h (0 Bft) W-SW 247 0 min -3,1 C -1,1 C 0,0 km/h (0 Bft)
22.12.2021 02:55 -0,9 C 5,8 C -1,0 C -1,0 C -1,1 C 0,0 C 85 % 89 % 1028,9 hPa 0,0 l/m 0,0 km/h (0 Bft) W-SW 247 0 min -3,1 C -1,1 C 0,0 km/h (0 Bft)
22.12.2021 03:00 -0,9 C 5,8 C -1,0 C -1,0 C -1,1 C 0,0 C 85 % 89 % 1028,9 hPa 0,0 l/m 0,0 km/h (0 Bft) W-SW 247 0 min -3,1 C -1,1 C 0,0 km/h (0 Bft)
22.12.2021 03:05 -0,9 C 5,8 C -1,0 C -1,0 C -1,1 C 0,0 C 85 % 89 % 1028,9 hPa 0,0 l/m 0,0 km/h (0 Bft) W-SW 247 0 min -3,1 C -1,1 C 0,0 km/h (0 Bft)
22.12.2021 03:10 -0,9 C 5,8 C -1,0 C -1,0 C -1,1 C 0,0 C 85 % 89 % 1029,6 hPa 0,0 l/m 0,0 km/h (0 Bft) W-SW 247 0 min -3,1 C -1,1 C 0,0 km/h (0 Bft)
22.12.2021 03:15 -0,9 C 5,8 C -1,0 C -1,0 C -1,1 C 0,0 C 85 % 89 % 1029,6 hPa 0,0 l/m 0,0 km/h (0 Bft) W-SW 247 0 min -3,1 C -1,1 C 0,0 km/h (0 Bft)
22.12.2021 03:20 -0,9 C 5,8 C -1,0 C -1,0 C -1,1 C 0,0 C 85 % 89 % 1029,6 hPa 0,0 l/m 0,0 km/h (0 Bft) W-SW 247 0 min -3,1 C -1,1 C 0,0 km/h (0 Bft)
22.12.2021 03:25 -0,9 C 5,8 C -1,0 C -1,0 C -1,1 C 0,0 C 85 % 89 % 1029,6 hPa 0,0 l/m 0,0 km/h (0 Bft) W-SW 247 0 min -3,1 C -1,1 C 0,0 km/h (0 Bft)
22.12.2021 03:30 -0,9 C 5,8 C -1,0 C -1,0 C -1,1 C 0,0 C 85 % 89 % 1029,1 hPa 0,0 l/m 0,0 km/h (0 Bft) S 180 0 min -3,1 C -1,1 C 0,0 km/h (0 Bft)
22.12.2021 03:35 -0,9 C 5,8 C -1,0 C -1,0 C -1,1 C 0,0 C 85 % 89 % 1029,1 hPa 0,0 l/m 0,0 km/h (0 Bft) SW 225 0 min -3,1 C -1,1 C 0,0 km/h (0 Bft)
22.12.2021 03:40 -0,9 C 5,8 C -1,0 C -1,0 C -1,1 C 0,0 C 85 % 89 % 1029,1 hPa 0,0 l/m 0,0 km/h (0 Bft) S 180 0 min -3,1 C -1,1 C 1,9 km/h (1 Bft)
22.12.2021 03:45 -0,9 C 5,8 C -1,1 C -1,0 C -1,1 C 0,0 C 85 % 88 % 1029,1 hPa 0,0 l/m 0,0 km/h (0 Bft) SO 135 0 min -3,1 C -1,1 C 0,0 km/h (0 Bft)
22.12.2021 03:50 -0,9 C 5,8 C -1,1 C -1,0 C -1,1 C 0,0 C 85 % 88 % 1029,1 hPa 0,0 l/m 0,0 km/h (0 Bft) SO 135 0 min -3,1 C -1,1 C 0,0 km/h (0 Bft)
22.12.2021 03:55 -0,9 C 5,8 C -1,1 C -1,0 C -1,2 C 0,0 C 85 % 88 % 1029,1 hPa 0,0 l/m 0,0 km/h (0 Bft) SW 225 0 min -3,1 C -1,2 C 0,0 km/h (0 Bft)
22.12.2021 04:00 -0,9 C 5,8 C -1,1 C -1,0 C -1,2 C 0,0 C 84 % 88 % 1029,1 hPa 0,0 l/m 0,0 km/h (0 Bft) SW 225 0 min -3,3 C -1,2 C 0,0 km/h (0 Bft)
22.12.2021 04:05 -0,9 C 5,8 C -1,2 C -1,0 C -1,3 C 0,0 C 84 % 88 % 1029,1 hPa 0,0 l/m 0,0 km/h (0 Bft) O-SO 112 0 min -3,3 C -1,3 C 0,0 km/h (0 Bft)
22.12.2021 04:10 -1,0 C 5,8 C -1,2 C -1,1 C -1,3 C 0,0 C 84 % 88 % 1029,1 hPa 0,0 l/m 0,2 km/h (0 Bft) S 180 0 min -3,4 C -1,3 C 1,9 km/h (1 Bft)
22.12.2021 04:15 -0,9 C 5,8 C -1,3 C -1,1 C -1,4 C 0,0 C 84 % 88 % 1029,1 hPa 0,0 l/m 0,2 km/h (0 Bft) O-NO 67 0 min -3,3 C -1,4 C 0,0 km/h (0 Bft)
22.12.2021 04:20 -0,9 C 5,8 C -1,3 C -1,1 C -1,5 C 0,0 C 84 % 88 % 1029,1 hPa 0,0 l/m 0,0 km/h (0 Bft) S 180 0 min -3,3 C -1,5 C 0,0 km/h (0 Bft)
22.12.2021 04:25 -1,1 C 5,8 C -1,6 C -1,4 C -1,9 C 0,0 C 84 % 88 % 1029,1 hPa 0,0 l/m 0,0 km/h (0 Bft) SO 135 0 min -3,4 C -1,9 C 0,0 km/h (0 Bft)
22.12.2021 04:30 -1,2 C 5,8 C -1,7 C -1,5 C -2,1 C 0,0 C 83 % 88 % 1028,9 hPa 0,0 l/m 0,0 km/h (0 Bft) S-SO 157 0 min -3,7 C -2,1 C 0,0 km/h (0 Bft)
22.12.2021 04:35 -1,3 C 5,8 C -2,0 C -1,7 C -2,4 C 0,0 C 83 % 87 % 1028,9 hPa 0,0 l/m 0,2 km/h (0 Bft) W-SW 247 0 min -3,8 C -2,4 C 0,0 km/h (0 Bft)
22.12.2021 04:40 -1,3 C 5,6 C -2,1 C -1,7 C -2,6 C 0,0 C 83 % 87 % 1028,9 hPa 0,0 l/m 0,0 km/h (0 Bft) S 180 0 min -3,8 C -2,6 C 0,0 km/h (0 Bft)
22.12.2021 04:45 -1,5 C 5,6 C -2,3 C -2,0 C -3,1 C 0,0 C 83 % 88 % 1028,9 hPa 0,0 l/m 0,0 km/h (0 Bft) S 180 0 min -4,0 C -3,1 C 0,0 km/h (0 Bft)
22.12.2021 04:50 -1,5 C 5,6 C -2,5 C -2,1 C -3,2 C 0,0 C 83 % 88 % 1029,2 hPa 0,0 l/m 0,0 km/h (0 Bft) S 180 0 min -4,0 C -3,2 C 0,0 km/h (0 Bft)
22.12.2021 04:55 -1,7 C 5,6 C -2,8 C -2,3 C -3,6 C 0,0 C 83 % 88 % 1029,2 hPa 0,0 l/m 0,0 km/h (0 Bft) S 180 0 min -4,2 C -3,6 C 0,0 km/h (0 Bft)
22.12.2021 05:00 -1,7 C 5,7 C -2,9 C -2,4 C -3,8 C 0,0 C 83 % 89 % 1029,2 hPa 0,0 l/m 0,0 km/h (0 Bft) S 180 0 min -4,2 C -3,8 C 0,0 km/h (0 Bft)
22.12.2021 05:05 -1,9 C 5,7 C -3,1 C -2,7 C -4,2 C 0,0 C 83 % 89 % 1029,2 hPa 0,0 l/m 0,0 km/h (0 Bft) S 180 0 min -4,4 C -4,2 C 0,0 km/h (0 Bft)
22.12.2021 05:10 -2,1 C 5,8 C -3,2 C -2,8 C -4,3 C 0,0 C 83 % 89 % 1029,4 hPa 0,0 l/m 0,0 km/h (0 Bft) S 180 0 min -4,6 C -4,3 C 0,0 km/h (0 Bft)
22.12.2021 05:15 -2,3 C 5,7 C -3,3 C -3,0 C -4,4 C 0,0 C 83 % 89 % 1029,4 hPa 0,0 l/m 0,0 km/h (0 Bft) S 180 0 min -4,8 C -4,4 C 0,0 km/h (0 Bft)
22.12.2021 05:20 -2,4 C 5,7 C -3,4 C -3,1 C -4,4 C 0,0 C 83 % 89 % 1029,4 hPa 0,0 l/m 0,0 km/h (0 Bft) S 180 0 min -4,9 C -4,4 C 0,0 km/h (0 Bft)
22.12.2021 05:25 -2,5 C 5,7 C -3,4 C -3,1 C -4,4 C 0,0 C 83 % 90 % 1029,4 hPa 0,0 l/m 0,0 km/h (0 Bft) SW 225 0 min -5,0 C -4,4 C 0,0 km/h (0 Bft)
22.12.2021 05:30 -2,5 C 5,7 C -3,5 C -3,1 C -4,4 C 0,0 C 83 % 90 % 1028,6 hPa 0,0 l/m 0,0 km/h (0 Bft) SW 225 0 min -5,0 C -4,4 C 0,0 km/h (0 Bft)
22.12.2021 05:35 -2,5 C 5,7 C -3,7 C -3,2 C -4,5 C 0,0 C 84 % 90 % 1028,6 hPa 0,0 l/m 0,0 km/h (0 Bft) SW 225 0 min -4,8 C -4,5 C 0,0 km/h (0 Bft)
22.12.2021 05:40 -2,7 C 5,7 C -3,8 C -3,4 C -4,7 C 0,0 C 83 % 90 % 1028,6 hPa 0,0 l/m 0,0 km/h (0 Bft) SW 225 0 min -5,2 C -4,7 C 0,0 km/h (0 Bft)
22.12.2021 05:45 -2,7 C 5,7 C -3,9 C -3,4 C -4,8 C 0,0 C 84 % 90 % 1028,6 hPa 0,0 l/m 0,0 km/h (0 Bft) SW 225 0 min -5,0 C -4,8 C 0,0 km/h (0 Bft)
22.12.2021 05:50 -2,9 C 5,7 C -4,0 C -3,6 C -5,0 C 0,0 C 84 % 90 % 1028,6 hPa 0,0 l/m 0,0 km/h (0 Bft) SW 225 0 min -5,2 C -5,0 C 0,0 km/h (0 Bft)
22.12.2021 05:55 -3,1 C 5,7 C -4,1 C -3,7 C -5,0 C 0,0 C 84 % 90 % 1028,6 hPa 0,0 l/m 0,0 km/h (0 Bft) SW 225 0 min -5,4 C -5,0 C 0,0 km/h (0 Bft)
22.12.2021 06:00 -3,1 C 5,8 C -4,0 C -3,7 C -5,0 C 0,0 C 84 % 91 % 1028,6 hPa 0,0 l/m 0,0 km/h (0 Bft) SW 225 0 min -5,4 C -5,0 C 0,0 km/h (0 Bft)
22.12.2021 06:05 -3,2 C 5,7 C -4,1 C -3,8 C -5,0 C 0,0 C 84 % 91 % 1028,6 hPa 0,0 l/m 0,0 km/h (0 Bft) SW 225 0 min -5,5 C -5,0 C 0,0 km/h (0 Bft)
22.12.2021 06:10 -3,2 C 5,7 C -4,1 C -3,8 C -5,0 C 0,0 C 84 % 91 % 1028,6 hPa 0,0 l/m 0,0 km/h (0 Bft) SW 225 0 min -5,5 C -5,0 C 0,0 km/h (0 Bft)
22.12.2021 06:15 -3,3 C 5,7 C -4,2 C -3,9 C -5,0 C 0,0 C 85 % 91 % 1028,6 hPa 0,0 l/m 0,0 km/h (0 Bft) SW 225 0 min -5,5 C -5,0 C 0,0 km/h (0 Bft)
22.12.2021 06:20 -3,3 C 5,7 C -4,3 C -3,9 C -5,0 C 0,0 C 85 % 91 % 1028,6 hPa 0,0 l/m 0,0 km/h (0 Bft) SW 225 0 min -5,5 C -5,0 C 0,0 km/h (0 Bft)
22.12.2021 06:25 -3,3 C 5,7 C -4,3 C -3,8 C -4,9 C 0,0 C 85 % 91 % 1028,6 hPa 0,0 l/m 0,0 km/h (0 Bft) S 180 0 min -5,5 C -4,9 C 0,0 km/h (0 Bft)
22.12.2021 06:30 -3,4 C 5,7 C -4,4 C -3,9 C -4,8 C 0,0 C 85 % 91 % 1028,6 hPa 0,0 l/m 0,0 km/h (0 Bft) S 180 0 min -5,5 C -4,8 C 0,0 km/h (0 Bft)
22.12.2021 06:35 -3,3 C 5,7 C -4,5 C -3,8 C -4,9 C 0,0 C 85 % 91 % 1028,6 hPa 0,0 l/m 0,0 km/h (0 Bft) S 180 0 min -5,5 C -4,9 C 0,0 km/h (0 Bft)
22.12.2021 06:40 -3,5 C 5,7 C -4,5 C -4,0 C -5,0 C 0,0 C 85 % 91 % 1028,6 hPa 0,0 l/m 0,0 km/h (0 Bft) S 180 0 min -5,6 C -5,0 C 0,0 km/h (0 Bft)
22.12.2021 06:45 -3,5 C 5,7 C -4,5 C -4,0 C -5,0 C 0,0 C 85 % 91 % 1028,6 hPa 0,0 l/m 0,0 km/h (0 Bft) S 180 0 min -5,6 C -5,0 C 0,0 km/h (0 Bft)
22.12.2021 06:50 -3,6 C 5,7 C -4,5 C -4,1 C -5,0 C 0,0 C 86 % 92 % 1028,6 hPa 0,0 l/m 0,2 km/h (0 Bft) SO 135 0 min -5,6 C -5,0 C 2,6 km/h (1 Bft)
22.12.2021 06:55 -3,3 C 5,7 C -4,1 C -3,7 C -4,5 C 0,0 C 86 % 92 % 1028,6 hPa 0,0 l/m 0,6 km/h (0 Bft) S 180 0 min -5,3 C -4,5 C 3,9 km/h (1 Bft)
22.12.2021 07:00 -3,3 C 5,7 C -4,1 C -3,7 C -4,4 C 0,0 C 86 % 92 % 1028,6 hPa 0,0 l/m 1,0 km/h (0 Bft) S 180 0 min -5,3 C -4,4 C 0,0 km/h (0 Bft)
22.12.2021 07:05 -3,2 C 5,7 C -4,1 C -3,6 C -4,3 C 0,0 C 86 % 92 % 1028,6 hPa 0,0 l/m 0,5 km/h (0 Bft) S-SO 157 0 min -5,2 C -4,3 C 0,0 km/h (0 Bft)
22.12.2021 07:10 -3,2 C 5,7 C -4,0 C -3,6 C -4,3 C 0,0 C 86 % 92 % 1028,6 hPa 0,0 l/m 0,3 km/h (0 Bft) SO 135 0 min -5,2 C -4,3 C 0,0 km/h (0 Bft)
22.12.2021 07:15 -3,1 C 5,7 C -4,0 C -3,5 C -4,3 C 0,0 C 86 % 92 % 1028,6 hPa 0,0 l/m 0,3 km/h (0 Bft) SW 225 0 min -5,1 C -4,3 C 0,0 km/h (0 Bft)
22.12.2021 07:20 -3,2 C 5,7 C -4,1 C -3,6 C -4,4 C 0,0 C 86 % 92 % 1028,6 hPa 0,0 l/m 0,0 km/h (0 Bft) SW 225 0 min -5,2 C -4,4 C 0,0 km/h (0 Bft)
22.12.2021 07:25 -3,3 C 5,7 C -4,3 C -3,8 C -4,7 C 0,0 C 86 % 92 % 1028,6 hPa 0,0 l/m 0,0 km/h (0 Bft) SO 135 0 min -5,3 C -4,7 C 0,0 km/h (0 Bft)
22.12.2021 07:30 -3,4 C 5,7 C -4,5 C -3,9 C -4,8 C 0,0 C 86 % 92 % 1028,8 hPa 0,0 l/m 0,0 km/h (0 Bft) SW 225 0 min -5,4 C -4,8 C 0,0 km/h (0 Bft)
22.12.2021 07:35 -3,5 C 5,7 C -4,3 C -4,0 C -4,9 C 0,0 C 86 % 92 % 1028,8 hPa 0,0 l/m 0,0 km/h (0 Bft) O-NO 67 0 min -5,5 C -4,9 C 0,0 km/h (0 Bft)
22.12.2021 07:40 -3,5 C 5,7 C -4,4 C -4,0 C -4,9 C 0,0 C 86 % 92 % 1028,8 hPa 0,0 l/m 0,0 km/h (0 Bft) O-NO 67 0 min -5,5 C -4,9 C 0,0 km/h (0 Bft)
22.12.2021 07:45 -3,5 C 5,7 C -4,5 C -4,0 C -5,1 C 0,0 C 86 % 92 % 1028,8 hPa 0,0 l/m 0,0 km/h (0 Bft) SW 225 0 min -5,5 C -5,1 C 0,0 km/h (0 Bft)
22.12.2021 07:50 -3,7 C 5,6 C -4,5 C -4,2 C -5,2 C 0,0 C 86 % 92 % 1028,9 hPa 0,0 l/m 0,0 km/h (0 Bft) SW 225 0 min -5,7 C -5,2 C 0,0 km/h (0 Bft)
22.12.2021 07:55 -3,7 C 5,6 C -4,6 C -4,3 C -5,4 C 0,0 C 86 % 92 % 1028,9 hPa 0,0 l/m 0,0 km/h (0 Bft) SO 135 0 min -5,7 C -5,4 C 0,0 km/h (0 Bft)
22.12.2021 08:00 -3,7 C 5,7 C -4,7 C -4,3 C -5,4 C 0,0 C 86 % 92 % 1028,9 hPa 0,0 l/m 0,0 km/h (0 Bft) S-SO 157 0 min -5,7 C -5,4 C 0,0 km/h (0 Bft)
22.12.2021 08:05 -3,9 C 5,6 C -4,7 C -4,4 C -5,3 C 0,0 C 86 % 92 % 1028,9 hPa 0,0 l/m 0,0 km/h (0 Bft) SO 135 0 min -5,9 C -5,3 C 0,0 km/h (0 Bft)
22.12.2021 08:10 -4,0 C 5,6 C -4,7 C -4,4 C -5,2 C 0,0 C 86 % 93 % 1028,9 hPa 0,0 l/m 0,0 km/h (0 Bft) S-SO 157 0 min -6,0 C -5,2 C 0,0 km/h (0 Bft)
22.12.2021 08:15 -3,9 C 5,6 C -4,5 C -4,3 C -5,1 C 0,0 C 87 % 93 % 1028,9 hPa 0,0 l/m 0,0 km/h (0 Bft) S 180 0 min -5,7 C -5,1 C 0,0 km/h (0 Bft)
22.12.2021 08:20 -3,7 C 5,6 C -4,5 C -4,1 C -5,0 C 0,0 C 87 % 93 % 1028,9 hPa 0,0 l/m 0,0 km/h (0 Bft) S 180 0 min -5,5 C -5,0 C 0,0 km/h (0 Bft)
22.12.2021 08:25 -3,7 C 5,6 C -4,5 C -4,1 C -5,0 C 0,0 C 87 % 93 % 1028,9 hPa 0,0 l/m 0,0 km/h (0 Bft) SW 225 0 min -5,5 C -5,0 C 0,0 km/h (0 Bft)
22.12.2021 08:30 -3,8 C 5,6 C -4,5 C -4,2 C -4,9 C 0,0 C 87 % 93 % 1029,6 hPa 0,0 l/m 0,2 km/h (0 Bft) S 180 0 min -5,6 C -4,9 C 1,8 km/h (1 Bft)
22.12.2021 08:35 -3,7 C 5,6 C -4,4 C -4,1 C -4,8 C 0,0 C 87 % 93 % 1029,6 hPa 0,0 l/m 0,2 km/h (0 Bft) S 180 0 min -5,5 C -4,8 C 0,0 km/h (0 Bft)
22.12.2021 08:40 -3,7 C 5,6 C -4,4 C -4,1 C -4,8 C 0,0 C 87 % 93 % 1029,6 hPa 0,0 l/m 0,2 km/h (0 Bft) SO 135 0 min -5,5 C -4,8 C 0,0 km/h (0 Bft)
22.12.2021 08:45 -3,7 C 5,6 C -4,4 C -4,1 C -4,9 C 0,0 C 87 % 93 % 1029,6 hPa 0,0 l/m 0,0 km/h (0 Bft) S-SO 157 0 min -5,5 C -4,9 C 0,0 km/h (0 Bft)
22.12.2021 08:50 -3,7 C 5,5 C -4,4 C -4,1 C -4,9 C 0,0 C 87 % 93 % 1029,5 hPa 0,0 l/m 0,0 km/h (0 Bft) S 180 0 min -5,5 C -4,9 C 0,0 km/h (0 Bft)
22.12.2021 08:55 -3,7 C 5,5 C -4,4 C -4,1 C -4,9 C 0,0 C 87 % 93 % 1029,5 hPa 0,0 l/m 0,0 km/h (0 Bft) S 180 0 min -5,5 C -4,9 C 0,0 km/h (0 Bft)
22.12.2021 09:00 -3,7 C 5,5 C -4,3 C -4,1 C -4,9 C 0,0 C 87 % 93 % 1029,5 hPa 0,0 l/m 0,0 km/h (0 Bft) SW 225 0 min -5,5 C -4,9 C 0,0 km/h (0 Bft)
22.12.2021 09:05 -3,8 C 5,5 C -4,4 C -4,1 C -4,7 C 0,0 C 87 % 93 % 1029,5 hPa 0,0 l/m 0,0 km/h (0 Bft) SO 135 0 min -5,6 C -4,7 C 0,0 km/h (0 Bft)
22.12.2021 09:10 -3,7 C 5,5 C -4,3 C -4,0 C -4,7 C 0,0 C 87 % 93 % 1029,5 hPa 0,0 l/m 0,0 km/h (0 Bft) S-SO 157 0 min -5,5 C -4,7 C 0,0 km/h (0 Bft)
22.12.2021 09:15 -3,8 C 5,5 C -4,1 C -4,1 C -4,7 C 0,0 C 87 % 93 % 1029,5 hPa 0,0 l/m 0,0 km/h (0 Bft) SO 135 0 min -5,6 C -4,7 C 0,0 km/h (0 Bft)
22.12.2021 09:20 -3,7 C 5,5 C -4,2 C -4,0 C -4,6 C 0,0 C 87 % 92 % 1029,5 hPa 0,0 l/m 0,0 km/h (0 Bft) SO 135 0 min -5,5 C -4,6 C 0,0 km/h (0 Bft)
22.12.2021 09:25 -3,7 C 5,5 C -4,1 C -3,9 C -4,4 C 0,0 C 87 % 92 % 1029,5 hPa 0,0 l/m 0,0 km/h (0 Bft) S 180 0 min -5,5 C -4,4 C 0,0 km/h (0 Bft)
22.12.2021 09:30 -3,7 C 5,5 C -4,1 C -3,9 C -4,4 C 0,0 C 87 % 92 % 1029,5 hPa 0,0 l/m 0,0 km/h (0 Bft) S 180 0 min -5,5 C -4,4 C 0,0 km/h (0 Bft)
22.12.2021 09:35 -3,6 C 5,5 C -4,0 C -3,9 C -4,4 C 0,0 C 87 % 92 % 1029,5 hPa 0,0 l/m 0,0 km/h (0 Bft) S 180 0 min -5,4 C -4,4 C 0,0 km/h (0 Bft)
22.12.2021 09:40 -3,5 C 5,5 C -3,9 C -3,8 C -4,3 C 0,0 C 87 % 92 % 1029,5 hPa 0,0 l/m 0,0 km/h (0 Bft) S-SO 157 0 min -5,3 C -4,3 C 0,0 km/h (0 Bft)
22.12.2021 09:45 -3,3 C 5,5 C -3,8 C -3,6 C -4,3 C 0,0 C 87 % 92 % 1029,5 hPa 0,0 l/m 0,0 km/h (0 Bft) S 180 0 min -5,1 C -4,3 C 0,0 km/h (0 Bft)
22.12.2021 09:50 -3,4 C 5,5 C -3,8 C -3,7 C -4,2 C 0,0 C 87 % 92 % 1029,2 hPa 0,0 l/m 0,0 km/h (0 Bft) S 180 0 min -5,2 C -4,2 C 0,0 km/h (0 Bft)
22.12.2021 09:55 -3,3 C 5,3 C -3,7 C -3,5 C -3,9 C 0,0 C 87 % 92 % 1029,2 hPa 0,0 l/m 0,2 km/h (0 Bft) S-SO 157 0 min -5,1 C -3,9 C 1,9 km/h (1 Bft)
22.12.2021 10:00 -3,2 C 5,3 C -3,6 C -3,4 C -3,9 C 0,0 C 87 % 92 % 1029,2 hPa 0,0 l/m 0,3 km/h (0 Bft) SW 225 0 min -5,0 C -3,9 C 2,6 km/h (1 Bft)
22.12.2021 10:05 -3,1 C 5,3 C -3,5 C -3,3 C -3,6 C 0,0 C 87 % 92 % 1029,2 hPa 0,0 l/m 0,3 km/h (0 Bft) S-SW 202 0 min -4,9 C -3,6 C 0,0 km/h (0 Bft)
22.12.2021 10:10 -2,9 C 5,3 C -3,5 C -3,1 C -3,5 C 0,0 C 88 % 92 % 1029,2 hPa 0,0 l/m 0,0 km/h (0 Bft) S 180 0 min -4,6 C -3,5 C 0,0 km/h (0 Bft)
22.12.2021 10:15 -2,9 C 5,3 C -3,4 C -3,1 C -3,4 C 0,0 C 87 % 92 % 1029,2 hPa 0,0 l/m 0,0 km/h (0 Bft) S 180 0 min -4,8 C -3,4 C 0,0 km/h (0 Bft)
22.12.2021 10:20 -2,9 C 5,3 C -3,3 C -3,0 C -3,2 C 0,0 C 87 % 92 % 1029,2 hPa 0,0 l/m 0,0 km/h (0 Bft) S-SO 157 0 min -4,8 C -3,2 C 0,0 km/h (0 Bft)
22.12.2021 10:25 -2,9 C 5,3 C -3,3 C -2,9 C -2,9 C 0,0 C 87 % 92 % 1029,2 hPa 0,0 l/m 0,0 km/h (0 Bft) W-SW 247 0 min -4,8 C -2,9 C 0,0 km/h (0 Bft)
22.12.2021 10:30 -2,9 C 5,3 C -3,3 C -2,8 C -2,8 C 0,1 C 87 % 92 % 1029,1 hPa 0,0 l/m 0,0 km/h (0 Bft) W-SW 247 0 min -4,8 C -2,8 C 0,0 km/h (0 Bft)
22.12.2021 10:35 -2,7 C 5,3 C -3,2 C -2,8 C -2,9 C 0,0 C 87 % 92 % 1029,1 hPa 0,0 l/m 0,0 km/h (0 Bft) W-SW 247 0 min -4,6 C -2,9 C 0,0 km/h (0 Bft)
22.12.2021 10:40 -2,8 C 5,3 C -3,1 C -2,8 C -2,8 C 0,0 C 87 % 92 % 1029,1 hPa 0,0 l/m 0,0 km/h (0 Bft) W-SW 247 0 min -4,7 C -2,8 C 0,0 km/h (0 Bft)
22.12.2021 10:45 -2,7 C 5,3 C -3,1 C -2,4 C -2,4 C 0,3 C 87 % 92 % 1029,1 hPa 0,0 l/m 0,0 km/h (0 Bft) W-SW 247 0 min -4,6 C -2,4 C 0,0 km/h (0 Bft)
22.12.2021 10:50 -2,7 C 5,3 C -3,0 C -2,5 C -2,5 C 0,2 C 87 % 92 % 1028,8 hPa 0,0 l/m 0,0 km/h (0 Bft) W-SW 247 0 min -4,6 C -2,5 C 0,0 km/h (0 Bft)
22.12.2021 10:55 -2,5 C 5,3 C -2,9 C -2,5 C -2,6 C 0,0 C 87 % 92 % 1028,8 hPa 0,0 l/m 0,0 km/h (0 Bft) SW 225 0 min -4,4 C -2,6 C 0,0 km/h (0 Bft)
22.12.2021 11:00 -2,5 C 5,3 C -2,9 C -2,5 C -2,6 C 0,0 C 87 % 92 % 1028,8 hPa 0,0 l/m 0,0 km/h (0 Bft) W-SW 247 0 min -4,4 C -2,6 C 0,0 km/h (0 Bft)
22.12.2021 11:05 -2,4 C 5,3 C -2,8 C -2,4 C -2,4 C 0,0 C 87 % 92 % 1028,8 hPa 0,0 l/m 0,0 km/h (0 Bft) S 180 0 min -4,3 C -2,4 C 0,0 km/h (0 Bft)
22.12.2021 11:10 -2,3 C 5,3 C -2,7 C -1,7 C -1,7 C 0,6 C 87 % 91 % 1028,7 hPa 0,0 l/m 0,0 km/h (0 Bft) S 180 0 min -4,2 C -1,7 C 0,0 km/h (0 Bft)
22.12.2021 11:15 -2,3 C 5,3 C -2,6 C -0,1 C -0,1 C 2,2 C 87 % 92 % 1028,7 hPa 0,0 l/m 0,0 km/h (0 Bft) SW 225 0 min -4,2 C -0,1 C 0,0 km/h (0 Bft)
22.12.2021 11:20 -2,1 C 5,3 C -2,5 C 1,2 C 1,2 C 3,3 C 87 % 91 % 1028,7 hPa 0,0 l/m 0,0 km/h (0 Bft) SW 225 5 min -4,0 C 1,2 C 0,0 km/h (0 Bft)
22.12.2021 11:25 -2,1 C 5,3 C -2,5 C 2,7 C 2,7 C 4,8 C 87 % 91 % 1028,7 hPa 0,0 l/m 0,0 km/h (0 Bft) W-SW 247 5 min -4,0 C 2,7 C 0,0 km/h (0 Bft)
22.12.2021 11:30 -2,1 C 5,2 C -2,4 C 3,3 C 3,3 C 5,4 C 86 % 91 % 1028,7 hPa 0,0 l/m 0,0 km/h (0 Bft) SW 225 5 min -4,1 C 3,3 C 0,0 km/h (0 Bft)
22.12.2021 11:35 -2,0 C 5,2 C -2,3 C 3,0 C 3,0 C 5,0 C 86 % 91 % 1028,7 hPa 0,0 l/m 0,0 km/h (0 Bft) W-SW 247 5 min -4,0 C 3,0 C 0,0 km/h (0 Bft)
22.12.2021 11:40 -1,9 C 5,2 C -2,2 C 1,6 C 1,6 C 3,5 C 86 % 91 % 1028,7 hPa 0,0 l/m 0,0 km/h (0 Bft) S-SW 202 5 min -3,9 C 1,6 C 1,6 km/h (1 Bft)
22.12.2021 11:45 -1,7 C 5,2 C -2,0 C 2,2 C 2,2 C 3,9 C 86 % 91 % 1028,7 hPa 0,0 l/m 0,0 km/h (0 Bft) SW 225 5 min -3,7 C 2,2 C 0,0 km/h (0 Bft)
22.12.2021 11:50 -1,6 C 5,2 C -2,0 C 2,5 C 2,5 C 4,1 C 86 % 91 % 1028,2 hPa 0,0 l/m 0,0 km/h (0 Bft) SO 135 5 min -3,6 C 2,5 C 0,0 km/h (0 Bft)
22.12.2021 11:55 -1,4 C 5,2 C -1,9 C 2,1 C 2,1 C 3,5 C 86 % 91 % 1028,2 hPa 0,0 l/m 0,0 km/h (0 Bft) SW 225 5 min -3,4 C 2,1 C 0,0 km/h (0 Bft)
22.12.2021 12:00 -1,3 C 5,2 C -1,7 C 1,9 C 1,9 C 3,2 C 86 % 91 % 1028,2 hPa 0,0 l/m 0,2 km/h (0 Bft) W-SW 247 0 min -3,3 C 1,9 C 0,0 km/h (0 Bft)
22.12.2021 12:05 -1,2 C 5,2 C -1,7 C 1,9 C 1,9 C 3,1 C 86 % 91 % 1028,2 hPa 0,0 l/m 0,2 km/h (0 Bft) W 270 0 min -3,2 C 1,9 C 0,0 km/h (0 Bft)
22.12.2021 12:10 -0,9 C 5,2 C -1,6 C 2,3 C 2,3 C 3,2 C 86 % 91 % 1028,1 hPa 0,0 l/m 0,2 km/h (0 Bft) SW 225 0 min -2,9 C 2,3 C 0,0 km/h (0 Bft)
22.12.2021 12:15 -0,8 C 5,2 C -1,4 C 2,3 C 2,3 C 3,1 C 86 % 90 % 1028,1 hPa 0,0 l/m 0,0 km/h (0 Bft) SW 225 0 min -2,8 C 2,3 C 0,0 km/h (0 Bft)
22.12.2021 12:20 -0,5 C 5,2 C -1,3 C 2,5 C 2,5 C 3,0 C 85 % 90 % 1028,1 hPa 0,0 l/m 0,2 km/h (0 Bft) W-SW 247 0 min -2,7 C 2,5 C 0,0 km/h (0 Bft)
22.12.2021 12:25 -0,3 C 5,2 C -0,9 C 2,2 C 2,2 C 2,5 C 85 % 90 % 1028,1 hPa 0,0 l/m 0,6 km/h (0 Bft) SW 225 0 min -2,5 C 2,2 C 0,0 km/h (0 Bft)
22.12.2021 12:30 -0,3 C 5,2 C -0,9 C 2,2 C 2,2 C 2,5 C 85 % 90 % 1028,0 hPa 0,0 l/m 0,5 km/h (0 Bft) S-SO 157 0 min -2,5 C 2,2 C 0,0 km/h (0 Bft)
22.12.2021 12:35 -0,1 C 5,2 C -0,7 C 1,8 C 1,8 C 1,9 C 84 % 89 % 1028,0 hPa 0,0 l/m 0,5 km/h (0 Bft) S 180 0 min -2,5 C 1,8 C 2,7 km/h (1 Bft)
22.12.2021 12:40 0,0 C 5,2 C -0,6 C 1,7 C 1,7 C 1,7 C 84 % 89 % 1028,0 hPa 0,0 l/m 0,5 km/h (0 Bft) O-SO 112 0 min -2,4 C 1,7 C 0,0 km/h (0 Bft)
22.12.2021 12:45 0,3 C 5,2 C -0,5 C 2,0 C 2,0 C 1,7 C 83 % 89 % 1028,0 hPa 0,0 l/m 1,0 km/h (0 Bft) SW 225 0 min -2,2 C 2,0 C 2,1 km/h (1 Bft)
22.12.2021 12:50 0,4 C 5,1 C -0,4 C 1,9 C 1,9 C 1,5 C 83 % 89 % 1027,8 hPa 0,0 l/m 1,3 km/h (1 Bft) W-SW 247 0 min -2,1 C 1,9 C 2,6 km/h (1 Bft)
22.12.2021 12:55 0,7 C 5,1 C -0,3 C 2,3 C 2,3 C 1,6 C 82 % 88 % 1027,8 hPa 0,0 l/m 1,3 km/h (1 Bft) W-SW 247 0 min -2,0 C 2,3 C 4,8 km/h (1 Bft)
22.12.2021 13:00 0,7 C 5,1 C -0,1 C 3,0 C 3,0 C 2,3 C 81 % 87 % 1027,8 hPa 0,0 l/m 1,1 km/h (1 Bft) S-SW 202 0 min -2,2 C 3,0 C 2,9 km/h (1 Bft)
22.12.2021 13:05 0,8 C 5,1 C 0,0 C 3,2 C 3,2 C 2,4 C 80 % 86 % 1027,8 hPa 0,0 l/m 1,1 km/h (1 Bft) W-SW 247 0 min -2,2 C 3,2 C 0,0 km/h (0 Bft)
22.12.2021 13:10 0,9 C 5,1 C 0,1 C 3,1 C 3,1 C 2,2 C 80 % 86 % 1027,8 hPa 0,0 l/m 1,0 km/h (0 Bft) S 180 0 min -2,2 C 3,1 C 0,0 km/h (0 Bft)
22.12.2021 13:15 1,1 C 5,1 C 0,3 C 3,1 C 3,1 C 2,0 C 80 % 85 % 1027,8 hPa 0,0 l/m 1,0 km/h (0 Bft) S-SW 202 0 min -2,0 C 3,1 C 3,2 km/h (1 Bft)
22.12.2021 13:20 1,2 C 5,1 C 0,3 C 3,0 C 3,0 C 1,8 C 79 % 85 % 1027,8 hPa 0,0 l/m 1,0 km/h (0 Bft) S 180 0 min -2,0 C 3,0 C 1,6 km/h (1 Bft)
22.12.2021 13:25 1,2 C 5,1 C 0,4 C 3,4 C 3,4 C 2,2 C 78 % 84 % 1027,8 hPa 0,0 l/m 1,4 km/h (1 Bft) S 180 0 min -2,2 C 3,4 C 6,4 km/h (2 Bft)
22.12.2021 13:30 1,5 C 5,1 C 0,5 C 3,5 C 3,5 C 2,0 C 77 % 83 % 1027,9 hPa 0,0 l/m 1,4 km/h (1 Bft) W-SW 247 0 min -2,1 C 3,5 C 2,4 km/h (1 Bft)
22.12.2021 13:35 1,6 C 5,1 C 0,6 C 3,8 C 3,8 C 2,2 C 77 % 83 % 1027,9 hPa 0,0 l/m 0,8 km/h (0 Bft) NO 45 0 min -2,0 C 3,8 C 0,0 km/h (0 Bft)
22.12.2021 13:40 1,6 C 5,1 C 0,6 C 3,9 C 3,9 C 2,3 C 76 % 83 % 1027,9 hPa 0,0 l/m 0,6 km/h (0 Bft) W 270 0 min -2,2 C 3,9 C 2,3 km/h (1 Bft)
22.12.2021 13:45 1,6 C 5,1 C 0,6 C 3,9 C 3,9 C 2,3 C 76 % 84 % 1027,9 hPa 0,0 l/m 1,8 km/h (1 Bft) S-SW 202 0 min -2,2 C 3,9 C 4,3 km/h (1 Bft)
22.12.2021 13:50 1,6 C 5,1 C 0,7 C 3,6 C 3,6 C 2,0 C 75 % 84 % 1027,6 hPa 0,0 l/m 2,4 km/h (1 Bft) N-NO 22 0 min -2,3 C 3,6 C 3,5 km/h (1 Bft)
22.12.2021 13:55 1,6 C 5,1 C 0,7 C 3,8 C 3,8 C 2,2 C 75 % 83 % 1027,6 hPa 0,0 l/m 1,6 km/h (1 Bft) SW 225 0 min -2,3 C 3,8 C 2,4 km/h (1 Bft)
22.12.2021 14:00 1,8 C 5,1 C 0,7 C 3,9 C 3,9 C 2,1 C 75 % 83 % 1027,6 hPa 0,0 l/m 1,8 km/h (1 Bft) SW 225 0 min -2,1 C 3,9 C 4,0 km/h (1 Bft)
22.12.2021 14:05 1,9 C 5,1 C 0,7 C 3,6 C 3,6 C 1,7 C 75 % 83 % 1027,6 hPa 0,0 l/m 1,8 km/h (1 Bft) S-SO 157 0 min -2,1 C 3,6 C 0,0 km/h (0 Bft)
22.12.2021 14:10 1,9 C 5,1 C 0,7 C 3,4 C 3,4 C 1,5 C 74 % 83 % 1027,6 hPa 0,0 l/m 1,4 km/h (1 Bft) SW 225 0 min -2,2 C 3,4 C 2,3 km/h (1 Bft)
22.12.2021 14:15 1,9 C 5,2 C 0,6 C 3,6 C 3,6 C 1,7 C 74 % 83 % 1027,6 hPa 0,0 l/m 1,8 km/h (1 Bft) SW 225 0 min -2,2 C 3,6 C 2,7 km/h (1 Bft)
22.12.2021 14:20 1,9 C 5,2 C 0,5 C 3,6 C 3,6 C 1,7 C 74 % 83 % 1027,6 hPa 0,0 l/m 1,6 km/h (1 Bft) W-SW 247 0 min -2,2 C 3,6 C 0,0 km/h (0 Bft)
22.12.2021 14:25 1,9 C 5,2 C 0,5 C 4,1 C 4,1 C 2,2 C 74 % 83 % 1027,6 hPa 0,0 l/m 1,0 km/h (0 Bft) SW 225 0 min -2,2 C 4,1 C 2,6 km/h (1 Bft)
22.12.2021 14:30 1,7 C 5,2 C 0,5 C 4,1 C 4,1 C 2,4 C 74 % 83 % 1027,3 hPa 0,0 l/m 0,6 km/h (0 Bft) SW 225 0 min -2,4 C 4,1 C 0,0 km/h (0 Bft)
22.12.2021 14:35 1,7 C 5,2 C 0,4 C 3,5 C 3,5 C 1,8 C 74 % 83 % 1027,3 hPa 0,0 l/m 1,0 km/h (0 Bft) S 180 0 min -2,4 C 3,5 C 1,8 km/h (1 Bft)
22.12.2021 14:40 1,6 C 5,2 C 0,3 C 3,4 C 3,4 C 1,8 C 74 % 83 % 1027,3 hPa 0,0 l/m 0,6 km/h (0 Bft) W-SW 247 0 min -2,5 C 3,4 C 2,1 km/h (1 Bft)
22.12.2021 14:45 1,5 C 5,2 C 0,2 C 3,2 C 3,2 C 1,7 C 74 % 83 % 1027,3 hPa 0,0 l/m 0,2 km/h (0 Bft) W-SW 247 0 min -2,6 C 3,2 C 0,0 km/h (0 Bft)
22.12.2021 14:50 1,4 C 5,2 C 0,1 C 2,9 C 2,9 C 1,5 C 74 % 83 % 1027,3 hPa 0,0 l/m 0,5 km/h (0 Bft) SW 225 0 min -2,7 C 2,9 C 2,7 km/h (1 Bft)
22.12.2021 14:55 1,4 C 5,2 C 0,1 C 2,4 C 2,4 C 1,0 C 74 % 83 % 1027,3 hPa 0,0 l/m 0,5 km/h (0 Bft) SW 225 0 min -2,7 C 2,4 C 0,0 km/h (0 Bft)
22.12.2021 15:00 1,5 C 5,2 C 0,0 C 2,0 C 2,0 C 0,5 C 74 % 83 % 1027,3 hPa 0,0 l/m 0,3 km/h (0 Bft) SO 135 0 min -2,6 C 2,0 C 0,0 km/h (0 Bft)
22.12.2021 15:05 1,3 C 5,2 C -0,1 C 1,3 C 1,2 C 0,0 C 74 % 83 % 1027,3 hPa 0,0 l/m 0,0 km/h (0 Bft) S 180 0 min -2,8 C 1,2 C 0,0 km/h (0 Bft)
22.12.2021 15:10 1,3 C 5,2 C -0,2 C 1,2 C 0,9 C 0,0 C 74 % 83 % 1027,1 hPa 0,0 l/m 0,0 km/h (0 Bft) S 180 0 min -2,8 C 0,9 C 0,0 km/h (0 Bft)
22.12.2021 15:15 1,2 C 5,3 C -0,5 C 0,9 C 0,4 C 0,0 C 74 % 83 % 1027,1 hPa 0,0 l/m 0,0 km/h (0 Bft) S 180 0 min -2,9 C 0,4 C 0,0 km/h (0 Bft)
22.12.2021 15:20 1,1 C 5,3 C -0,5 C 0,8 C 0,3 C 0,0 C 74 % 83 % 1027,1 hPa 0,0 l/m 0,0 km/h (0 Bft) S 180 0 min -3,0 C 0,3 C 0,0 km/h (0 Bft)
22.12.2021 15:25 1,0 C 5,3 C -0,7 C 0,6 C -0,1 C 0,0 C 74 % 84 % 1027,1 hPa 0,0 l/m 0,0 km/h (0 Bft) S 180 0 min -3,1 C -0,1 C 0,0 km/h (0 Bft)
22.12.2021 15:30 0,9 C 5,3 C -0,9 C 0,5 C -0,4 C 0,0 C 74 % 84 % 1026,8 hPa 0,0 l/m 0,0 km/h (0 Bft) S 180 0 min -3,2 C -0,4 C 0,0 km/h (0 Bft)
22.12.2021 15:35 0,7 C 5,3 C -1,2 C 0,2 C -0,7 C 0,0 C 75 % 84 % 1026,8 hPa 0,0 l/m 0,0 km/h (0 Bft) S 180 0 min -3,2 C -0,7 C 0,0 km/h (0 Bft)
22.12.2021 15:40 0,5 C 5,3 C -1,3 C 0,0 C -1,0 C 0,0 C 75 % 84 % 1026,8 hPa 0,0 l/m 0,0 km/h (0 Bft) S 180 0 min -3,4 C -1,0 C 0,0 km/h (0 Bft)
22.12.2021 15:45 0,3 C 5,3 C -1,6 C -0,2 C -1,1 C 0,0 C 75 % 85 % 1026,8 hPa 0,0 l/m 0,0 km/h (0 Bft) S 180 0 min -3,6 C -1,1 C 0,0 km/h (0 Bft)
22.12.2021 15:50 0,2 C 5,3 C -1,7 C -0,3 C -1,3 C 0,0 C 75 % 85 % 1026,8 hPa 0,0 l/m 0,0 km/h (0 Bft) S 180 0 min -3,7 C -1,3 C 0,0 km/h (0 Bft)
22.12.2021 15:55 -0,1 C 5,3 C -2,0 C -0,6 C -1,5 C 0,0 C 76 % 85 % 1026,8 hPa 0,0 l/m 0,0 km/h (0 Bft) S 180 0 min -3,8 C -1,5 C 0,0 km/h (0 Bft)
22.12.2021 16:00 -0,1 C 5,3 C -2,0 C -0,6 C -1,7 C 0,0 C 76 % 86 % 1026,8 hPa 0,0 l/m 0,0 km/h (0 Bft) S 180 0 min -3,8 C -1,7 C 0,0 km/h (0 Bft)
22.12.2021 16:05 -0,4 C 5,3 C -2,0 C -0,9 C -1,8 C 0,0 C 76 % 86 % 1026,8 hPa 0,0 l/m 0,0 km/h (0 Bft) S 180 0 min -4,1 C -1,8 C 0,0 km/h (0 Bft)
22.12.2021 16:10 -0,5 C 5,3 C -2,0 C -1,0 C -1,9 C 0,0 C 77 % 86 % 1027,0 hPa 0,0 l/m 0,0 km/h (0 Bft) O-SO 112 0 min -4,0 C -1,9 C 0,0 km/h (0 Bft)
22.12.2021 16:15 -0,5 C 5,3 C -2,2 C -1,0 C -1,9 C 0,0 C 77 % 87 % 1027,0 hPa 0,0 l/m 0,0 km/h (0 Bft) O-SO 112 0 min -4,0 C -1,9 C 0,0 km/h (0 Bft)
22.12.2021 16:20 -0,8 C 5,3 C -2,3 C -1,3 C -2,2 C 0,0 C 78 % 87 % 1027,0 hPa 0,0 l/m 0,0 km/h (0 Bft) O-SO 112 0 min -4,1 C -2,2 C 0,0 km/h (0 Bft)
22.12.2021 16:25 -0,9 C 5,3 C -2,5 C -1,5 C -2,6 C 0,0 C 78 % 87 % 1027,0 hPa 0,0 l/m 0,0 km/h (0 Bft) O-SO 112 0 min -4,2 C -2,6 C 0,0 km/h (0 Bft)
22.12.2021 16:30 -1,1 C 5,3 C -2,5 C -1,7 C -2,9 C 0,0 C 78 % 87 % 1026,9 hPa 0,0 l/m 0,0 km/h (0 Bft) O-SO 112 0 min -4,4 C -2,9 C 0,0 km/h (0 Bft)
22.12.2021 16:35 -1,3 C 5,3 C -2,5 C -1,9 C -3,0 C 0,0 C 78 % 87 % 1026,9 hPa 0,0 l/m 0,0 km/h (0 Bft) O-SO 112 0 min -4,6 C -3,0 C 0,0 km/h (0 Bft)
22.12.2021 16:40 -1,3 C 5,3 C -2,6 C -1,9 C -3,0 C 0,0 C 79 % 87 % 1026,9 hPa 0,0 l/m 0,0 km/h (0 Bft) O-SO 112 0 min -4,5 C -3,0 C 0,0 km/h (0 Bft)
22.12.2021 16:45 -1,3 C 5,3 C -2,7 C -1,9 C -3,0 C 0,0 C 79 % 88 % 1026,9 hPa 0,0 l/m 0,0 km/h (0 Bft) O-SO 112 0 min -4,5 C -3,0 C 0,0 km/h (0 Bft)
22.12.2021 16:50 -1,5 C 5,3 C -2,8 C -2,0 C -3,1 C 0,0 C 80 % 88 % 1026,9 hPa 0,0 l/m 0,0 km/h (0 Bft) O-SO 112 0 min -4,5 C -3,1 C 0,0 km/h (0 Bft)
22.12.2021 16:55 -1,5 C 5,3 C -2,9 C -2,0 C -3,1 C 0,0 C 80 % 89 % 1026,9 hPa 0,0 l/m 0,0 km/h (0 Bft) O-SO 112 0 min -4,5 C -3,1 C 0,0 km/h (0 Bft)
22.12.2021 17:00 -1,7 C 5,3 C -2,9 C -2,2 C -3,3 C 0,0 C 80 % 89 % 1026,9 hPa 0,0 l/m 0,0 km/h (0 Bft) O-SO 112 0 min -4,7 C -3,3 C 0,0 km/h (0 Bft)
22.12.2021 17:05 -1,9 C 5,3 C -3,1 C -2,4 C -3,4 C 0,0 C 80 % 88 % 1026,9 hPa 0,0 l/m 0,0 km/h (0 Bft) O-SO 112 0 min -4,9 C -3,4 C 0,0 km/h (0 Bft)
22.12.2021 17:10 -2,0 C 5,3 C -3,1 C -2,5 C -3,5 C 0,0 C 81 % 89 % 1026,8 hPa 0,0 l/m 0,0 km/h (0 Bft) O-SO 112 0 min -4,8 C -3,5 C 0,0 km/h (0 Bft)
22.12.2021 17:15 -2,1 C 5,3 C -3,3 C -2,6 C -3,7 C 0,0 C 81 % 89 % 1026,8 hPa 0,0 l/m 0,0 km/h (0 Bft) O-SO 112 0 min -4,9 C -3,7 C 0,0 km/h (0 Bft)
22.12.2021 17:20 -2,1 C 5,3 C -3,3 C -2,6 C -3,7 C 0,0 C 81 % 89 % 1026,8 hPa 0,0 l/m 0,0 km/h (0 Bft) O-SO 112 0 min -4,9 C -3,7 C 0,0 km/h (0 Bft)
22.12.2021 17:25 -2,1 C 5,3 C -3,4 C -2,7 C -3,8 C 0,0 C 82 % 89 % 1026,8 hPa 0,0 l/m 0,0 km/h (0 Bft) O-SO 112 0 min -4,7 C -3,8 C 0,0 km/h (0 Bft)
22.12.2021 17:30 -2,3 C 5,3 C -3,4 C -2,8 C -3,9 C 0,0 C 82 % 89 % 1026,7 hPa 0,0 l/m 0,0 km/h (0 Bft) O-SO 112 0 min -4,9 C -3,9 C 0,0 km/h (0 Bft)
22.12.2021 17:35 -2,4 C 5,3 C -3,3 C -2,8 C -3,7 C 0,0 C 82 % 90 % 1026,7 hPa 0,0 l/m 0,0 km/h (0 Bft) O-SO 112 0 min -5,0 C -3,7 C 0,0 km/h (0 Bft)
22.12.2021 17:40 -2,4 C 5,5 C -3,4 C -2,8 C -3,7 C 0,0 C 82 % 90 % 1026,7 hPa 0,0 l/m 0,0 km/h (0 Bft) O-SO 112 0 min -5,0 C -3,7 C 0,0 km/h (0 Bft)
22.12.2021 17:45 -2,4 C 5,3 C -3,4 C -2,9 C -3,8 C 0,0 C 83 % 90 % 1026,7 hPa 0,0 l/m 0,0 km/h (0 Bft) W-SW 247 0 min -4,9 C -3,8 C 0,0 km/h (0 Bft)
22.12.2021 17:50 -2,5 C 5,3 C -3,5 C -2,9 C -3,8 C 0,0 C 83 % 90 % 1026,9 hPa 0,0 l/m 0,0 km/h (0 Bft) W-SW 247 0 min -5,0 C -3,8 C 0,0 km/h (0 Bft)
22.12.2021 17:55 -2,5 C 5,3 C -3,6 C -3,0 C -4,0 C 0,0 C 83 % 90 % 1026,9 hPa 0,0 l/m 0,0 km/h (0 Bft) W-SW 247 0 min -5,0 C -4,0 C 0,0 km/h (0 Bft)
22.12.2021 18:00 -2,5 C 5,3 C -3,6 C -3,0 C -4,1 C 0,0 C 83 % 90 % 1026,9 hPa 0,0 l/m 0,0 km/h (0 Bft) W-SW 247 0 min -5,0 C -4,1 C 0,0 km/h (0 Bft)
22.12.2021 18:05 -2,7 C 5,5 C -3,7 C -3,2 C -4,1 C 0,0 C 83 % 90 % 1026,9 hPa 0,0 l/m 0,0 km/h (0 Bft) W-SW 247 0 min -5,2 C -4,1 C 0,0 km/h (0 Bft)
22.12.2021 18:10 -2,8 C 5,3 C -3,7 C -3,3 C -4,3 C 0,0 C 84 % 90 % 1026,8 hPa 0,0 l/m 0,0 km/h (0 Bft) W-SW 247 0 min -5,1 C -4,3 C 0,0 km/h (0 Bft)
22.12.2021 18:15 -2,9 C 5,3 C -3,8 C -3,4 C -4,4 C 0,0 C 84 % 90 % 1026,8 hPa 0,0 l/m 0,0 km/h (0 Bft) W-SW 247 0 min -5,2 C -4,4 C 0,0 km/h (0 Bft)
22.12.2021 18:20 -2,9 C 5,3 C -3,9 C -3,4 C -4,5 C 0,0 C 84 % 91 % 1026,8 hPa 0,0 l/m 0,0 km/h (0 Bft) W-SW 247 0 min -5,2 C -4,5 C 0,0 km/h (0 Bft)
22.12.2021 18:25 -3,1 C 5,3 C -3,9 C -3,5 C -4,4 C 0,0 C 84 % 91 % 1026,8 hPa 0,0 l/m 0,0 km/h (0 Bft) W-SW 247 0 min -5,4 C -4,4 C 0,0 km/h (0 Bft)
22.12.2021 18:30 -3,1 C 5,3 C -3,9 C -3,6 C -4,5 C 0,0 C 84 % 91 % 1026,8 hPa 0,0 l/m 0,0 km/h (0 Bft) W-SW 247 0 min -5,4 C -4,5 C 0,0 km/h (0 Bft)
22.12.2021 18:35 -3,1 C 5,3 C -3,9 C -3,5 C -4,4 C 0,0 C 84 % 91 % 1026,8 hPa 0,0 l/m 0,0 km/h (0 Bft) W-SW 247 0 min -5,4 C -4,4 C 0,0 km/h (0 Bft)
22.12.2021 18:40 -3,2 C 5,5 C -4,0 C -3,6 C -4,4 C 0,0 C 84 % 91 % 1026,8 hPa 0,0 l/m 0,0 km/h (0 Bft) W-SW 247 0 min -5,5 C -4,4 C 0,0 km/h (0 Bft)
22.12.2021 18:45 -3,2 C 5,3 C -4,0 C -3,6 C -4,4 C 0,0 C 84 % 91 % 1026,8 hPa 0,0 l/m 0,0 km/h (0 Bft) W-SW 247 0 min -5,5 C -4,4 C 0,0 km/h (0 Bft)
22.12.2021 18:50 -3,1 C 5,3 C -4,0 C -3,5 C -4,4 C 0,0 C 84 % 91 % 1026,1 hPa 0,0 l/m 0,0 km/h (0 Bft) W-SW 247 0 min -5,4 C -4,4 C 0,0 km/h (0 Bft)
22.12.2021 18:55 -3,3 C 5,5 C -4,1 C -3,7 C -4,5 C 0,0 C 85 % 91 % 1026,1 hPa 0,0 l/m 0,0 km/h (0 Bft) W-SW 247 0 min -5,5 C -4,5 C 0,0 km/h (0 Bft)
22.12.2021 19:00 -3,3 C 5,5 C -4,1 C -3,7 C -4,6 C 0,0 C 85 % 91 % 1026,1 hPa 0,0 l/m 0,0 km/h (0 Bft) W-SW 247 0 min -5,5 C -4,6 C 0,0 km/h (0 Bft)
22.12.2021 19:05 -3,3 C 5,5 C -4,1 C -3,7 C -4,6 C 0,0 C 85 % 91 % 1026,1 hPa 0,0 l/m 0,0 km/h (0 Bft) W-SW 247 0 min -5,5 C -4,6 C 0,0 km/h (0 Bft)
22.12.2021 19:10 -3,5 C 5,5 C -4,1 C -3,9 C -4,7 C 0,0 C 85 % 91 % 1026,4 hPa 0,0 l/m 0,0 km/h (0 Bft) W-SW 247 0 min -5,6 C -4,7 C 0,0 km/h (0 Bft)
22.12.2021 19:15 -3,6 C 5,3 C -4,2 C -4,0 C -4,8 C 0,0 C 85 % 91 % 1026,4 hPa 0,0 l/m 0,0 km/h (0 Bft) W-SW 247 0 min -5,7 C -4,8 C 0,0 km/h (0 Bft)
22.12.2021 19:20 -3,6 C 5,5 C -4,2 C -4,0 C -4,7 C 0,0 C 85 % 91 % 1026,4 hPa 0,0 l/m 0,0 km/h (0 Bft) W-SW 247 0 min -5,7 C -4,7 C 0,0 km/h (0 Bft)
22.12.2021 19:25 -3,7 C 5,5 C -4,2 C -4,1 C -4,9 C 0,0 C 85 % 91 % 1026,4 hPa 0,0 l/m 0,0 km/h (0 Bft) W-SW 247 0 min -5,8 C -4,9 C 0,0 km/h (0 Bft)
22.12.2021 19:30 -3,7 C 5,5 C -4,2 C -4,1 C -4,8 C 0,0 C 85 % 92 % 1025,4 hPa 0,0 l/m 0,0 km/h (0 Bft) W-SW 247 0 min -5,8 C -4,8 C 0,0 km/h (0 Bft)
22.12.2021 19:35 -3,7 C 5,3 C -4,2 C -4,0 C -4,6 C 0,0 C 86 % 92 % 1025,4 hPa 0,0 l/m 0,0 km/h (0 Bft) W-SW 247 0 min -5,7 C -4,6 C 0,0 km/h (0 Bft)
22.12.2021 19:40 -3,7 C 5,3 C -4,3 C -4,0 C -4,7 C 0,0 C 86 % 92 % 1025,4 hPa 0,0 l/m 0,0 km/h (0 Bft) W-SW 247 0 min -5,7 C -4,7 C 0,0 km/h (0 Bft)
22.12.2021 19:45 -3,7 C 5,3 C -4,3 C -4,1 C -4,8 C 0,0 C 86 % 92 % 1025,4 hPa 0,0 l/m 0,0 km/h (0 Bft) W-SW 247 0 min -5,7 C -4,8 C 0,0 km/h (0 Bft)
22.12.2021 19:50 -3,8 C 5,3 C -4,3 C -4,1 C -4,8 C 0,0 C 86 % 92 % 1026,2 hPa 0,0 l/m 0,0 km/h (0 Bft) W-SW 247 0 min -5,8 C -4,8 C 0,0 km/h (0 Bft)
22.12.2021 19:55 -3,7 C 5,5 C -4,3 C -4,1 C -4,8 C 0,0 C 86 % 92 % 1026,2 hPa 0,0 l/m 0,0 km/h (0 Bft) W-SW 247 0 min -5,7 C -4,8 C 0,0 km/h (0 Bft)
22.12.2021 20:00 -3,7 C 5,5 C -4,3 C -4,1 C -4,8 C 0,0 C 86 % 92 % 1026,2 hPa 0,0 l/m 0,0 km/h (0 Bft) W-SW 247 0 min -5,7 C -4,8 C 0,0 km/h (0 Bft)
22.12.2021 20:05 -3,7 C 5,5 C -4,4 C -4,1 C -4,8 C 0,0 C 86 % 92 % 1026,2 hPa 0,0 l/m 0,0 km/h (0 Bft) W-SW 247 0 min -5,7 C -4,8 C 0,0 km/h (0 Bft)
22.12.2021 20:10 -3,9 C 5,5 C -4,4 C -4,2 C -4,8 C 0,0 C 86 % 92 % 1025,7 hPa 0,0 l/m 0,0 km/h (0 Bft) W-SW 247 0 min -5,9 C -4,8 C 0,0 km/h (0 Bft)
22.12.2021 20:15 -3,9 C 5,5 C -4,5 C -4,2 C -4,8 C 0,0 C 86 % 92 % 1025,7 hPa 0,0 l/m 0,0 km/h (0 Bft) W-SW 247 0 min -5,9 C -4,8 C 0,0 km/h (0 Bft)
22.12.2021 20:20 -3,9 C 5,5 C -4,5 C -4,3 C -5,0 C 0,0 C 86 % 92 % 1025,7 hPa 0,0 l/m 0,0 km/h (0 Bft) W-SW 247 0 min -5,9 C -5,0 C 0,0 km/h (0 Bft)
22.12.2021 20:25 -4,0 C 5,5 C -4,5 C -4,3 C -5,0 C 0,0 C 86 % 92 % 1025,7 hPa 0,0 l/m 0,0 km/h (0 Bft) W-SW 247 0 min -6,0 C -5,0 C 0,0 km/h (0 Bft)
22.12.2021 20:30 -3,9 C 5,5 C -4,6 C -4,3 C -5,0 C 0,0 C 86 % 92 % 1025,7 hPa 0,0 l/m 0,0 km/h (0 Bft) W-SW 247 0 min -5,9 C -5,0 C 0,0 km/h (0 Bft)
22.12.2021 20:35 -4,1 C 5,5 C -4,8 C -4,5 C -5,2 C 0,0 C 86 % 92 % 1025,7 hPa 0,0 l/m 0,0 km/h (0 Bft) W-SW 247 0 min -6,1 C -5,2 C 0,0 km/h (0 Bft)
22.12.2021 20:40 -4,1 C 5,5 C -4,8 C -4,5 C -5,3 C 0,0 C 86 % 92 % 1025,7 hPa 0,0 l/m 0,0 km/h (0 Bft) W-SW 247 0 min -6,1 C -5,3 C 0,0 km/h (0 Bft)
22.12.2021 20:45 -4,1 C 5,5 C -4,7 C -4,4 C -5,1 C 0,0 C 86 % 93 % 1025,7 hPa 0,0 l/m 0,0 km/h (0 Bft) W-SW 247 0 min -6,1 C -5,1 C 0,0 km/h (0 Bft)
22.12.2021 20:50 -4,1 C 5,4 C -4,8 C -4,5 C -5,2 C 0,0 C 86 % 92 % 1025,6 hPa 0,0 l/m 0,0 km/h (0 Bft) W-SW 247 0 min -6,1 C -5,2 C 0,0 km/h (0 Bft)
22.12.2021 20:55 -4,1 C 5,4 C -4,7 C -4,5 C -5,2 C 0,0 C 87 % 93 % 1025,6 hPa 0,0 l/m 0,0 km/h (0 Bft) W-SW 247 0 min -5,9 C -5,2 C 0,0 km/h (0 Bft)
22.12.2021 21:00 -4,3 C 5,4 C -4,7 C -4,6 C -5,1 C 0,0 C 87 % 93 % 1025,6 hPa 0,0 l/m 0,0 km/h (0 Bft) W-SW 247 0 min -6,1 C -5,1 C 0,0 km/h (0 Bft)
22.12.2021 21:05 -4,3 C 5,4 C -4,6 C -4,5 C -5,0 C 0,0 C 87 % 93 % 1025,6 hPa 0,0 l/m 0,0 km/h (0 Bft) W-SW 247 0 min -6,1 C -5,0 C 0,0 km/h (0 Bft)
22.12.2021 21:10 -4,3 C 5,4 C -4,5 C -4,5 C -5,0 C 0,0 C 87 % 93 % 1025,2 hPa 0,0 l/m 0,0 km/h (0 Bft) W-SW 247 0 min -6,1 C -5,0 C 0,0 km/h (0 Bft)
22.12.2021 21:15 -4,3 C 5,4 C -4,5 C -4,5 C -5,0 C 0,0 C 87 % 93 % 1025,2 hPa 0,0 l/m 0,0 km/h (0 Bft) W-SW 247 0 min -6,1 C -5,0 C 0,0 km/h (0 Bft)
22.12.2021 21:20 -4,3 C 5,4 C -4,5 C -4,5 C -5,0 C 0,0 C 87 % 93 % 1025,2 hPa 0,0 l/m 0,0 km/h (0 Bft) W-SW 247 0 min -6,1 C -5,0 C 0,0 km/h (0 Bft)
22.12.2021 21:25 -4,3 C 5,5 C -4,5 C -4,5 C -4,8 C 0,0 C 87 % 93 % 1025,2 hPa 0,0 l/m 0,0 km/h (0 Bft) W-SW 247 0 min -6,1 C -4,8 C 0,0 km/h (0 Bft)
22.12.2021 21:30 -4,3 C 5,4 C -4,4 C -4,5 C -4,9 C 0,0 C 87 % 93 % 1025,3 hPa 0,0 l/m 0,0 km/h (0 Bft) W-SW 247 0 min -6,1 C -4,9 C 0,0 km/h (0 Bft)
22.12.2021 21:35 -4,2 C 5,4 C -4,5 C -4,4 C -4,9 C 0,0 C 87 % 93 % 1025,3 hPa 0,0 l/m 0,0 km/h (0 Bft) W-SW 247 0 min -6,0 C -4,9 C 0,0 km/h (0 Bft)
22.12.2021 21:40 -4,2 C 5,4 C -4,5 C -4,4 C -4,9 C 0,0 C 87 % 93 % 1025,3 hPa 0,0 l/m 0,0 km/h (0 Bft) W-SW 247 0 min -6,0 C -4,9 C 0,0 km/h (0 Bft)
22.12.2021 21:45 -4,1 C 5,4 C -4,5 C -4,4 C -5,0 C 0,0 C 88 % 93 % 1025,3 hPa 0,0 l/m 0,0 km/h (0 Bft) W-SW 247 0 min -5,8 C -5,0 C 0,0 km/h (0 Bft)
22.12.2021 21:50 -4,1 C 5,4 C -4,5 C -4,4 C -4,9 C 0,0 C 88 % 93 % 1025,3 hPa 0,0 l/m 0,0 km/h (0 Bft) W-SW 247 0 min -5,8 C -4,9 C 0,0 km/h (0 Bft)
22.12.2021 21:55 -4,1 C 5,4 C -4,6 C -4,4 C -4,9 C 0,0 C 88 % 93 % 1025,3 hPa 0,0 l/m 0,0 km/h (0 Bft) W-SW 247 0 min -5,8 C -4,9 C 0,0 km/h (0 Bft)
22.12.2021 22:00 -4,1 C 5,4 C -4,6 C -4,4 C -5,0 C 0,0 C 88 % 93 % 1025,3 hPa 0,0 l/m 0,0 km/h (0 Bft) W-SW 247 0 min -5,8 C -5,0 C 0,0 km/h (0 Bft)
22.12.2021 22:05 -4,1 C 5,4 C -4,7 C -4,4 C -5,1 C 0,0 C 88 % 93 % 1025,3 hPa 0,0 l/m 0,0 km/h (0 Bft) W-SW 247 0 min -5,8 C -5,1 C 0,0 km/h (0 Bft)
22.12.2021 22:10 -4,1 C 5,4 C -4,7 C -4,5 C -5,3 C 0,0 C 88 % 93 % 1025,3 hPa 0,0 l/m 0,0 km/h (0 Bft) W-SW 247 0 min -5,8 C -5,3 C 0,0 km/h (0 Bft)
22.12.2021 22:15 -4,4 C 5,4 C -4,8 C -4,7 C -5,4 C 0,0 C 87 % 92 % 1025,3 hPa 0,0 l/m 0,0 km/h (0 Bft) W-SW 247 0 min -6,2 C -5,4 C 0,0 km/h (0 Bft)
22.12.2021 22:20 -4,4 C 5,4 C -4,8 C -4,8 C -5,5 C 0,0 C 87 % 92 % 1025,3 hPa 0,0 l/m 0,0 km/h (0 Bft) W-SW 247 0 min -6,2 C -5,5 C 0,0 km/h (0 Bft)
22.12.2021 22:25 -4,4 C 5,4 C -4,9 C -4,7 C -5,4 C 0,0 C 87 % 92 % 1025,3 hPa 0,0 l/m 0,0 km/h (0 Bft) W-SW 247 0 min -6,2 C -5,4 C 0,0 km/h (0 Bft)
22.12.2021 22:30 -4,5 C 5,4 C -4,9 C -4,8 C -5,5 C 0,0 C 87 % 92 % 1024,6 hPa 0,0 l/m 0,0 km/h (0 Bft) W-SW 247 0 min -6,3 C -5,5 C 0,0 km/h (0 Bft)
22.12.2021 22:35 -4,5 C 5,4 C -5,0 C -4,9 C -5,6 C 0,0 C 87 % 93 % 1024,6 hPa 0,0 l/m 0,0 km/h (0 Bft) W-SW 247 0 min -6,3 C -5,6 C 0,0 km/h (0 Bft)
22.12.2021 22:40 -4,5 C 5,4 C -4,9 C -4,9 C -5,6 C 0,0 C 87 % 93 % 1024,6 hPa 0,0 l/m 0,0 km/h (0 Bft) W-SW 247 0 min -6,3 C -5,6 C 0,0 km/h (0 Bft)
22.12.2021 22:45 -4,5 C 5,4 C -5,0 C -4,9 C -5,6 C 0,0 C 87 % 93 % 1024,6 hPa 0,0 l/m 0,0 km/h (0 Bft) W-SW 247 0 min -6,3 C -5,6 C 0,0 km/h (0 Bft)
22.12.2021 22:50 -4,5 C 5,4 C -5,0 C -4,9 C -5,7 C 0,0 C 87 % 93 % 1024,5 hPa 0,0 l/m 0,0 km/h (0 Bft) W-SW 247 0 min -6,3 C -5,7 C 0,0 km/h (0 Bft)
22.12.2021 22:55 -4,7 C 5,4 C -5,1 C -5,1 C -5,9 C 0,0 C 87 % 93 % 1024,5 hPa 0,0 l/m 0,0 km/h (0 Bft) W-SW 247 0 min -6,5 C -5,9 C 0,0 km/h (0 Bft)
22.12.2021 23:00 -4,7 C 5,4 C -5,1 C -5,1 C -5,9 C 0,0 C 87 % 93 % 1024,5 hPa 0,0 l/m 0,0 km/h (0 Bft) W-SW 247 0 min -6,5 C -5,9 C 0,0 km/h (0 Bft)
22.12.2021 23:05 -4,8 C 5,4 C -5,1 C -5,2 C -6,0 C 0,0 C 87 % 93 % 1024,5 hPa 0,0 l/m 0,0 km/h (0 Bft) W-SW 247 0 min -6,6 C -6,0 C 0,0 km/h (0 Bft)
22.12.2021 23:10 -4,8 C 5,3 C -5,1 C -5,1 C -5,8 C 0,0 C 87 % 93 % 1024,5 hPa 0,0 l/m 0,0 km/h (0 Bft) W-SW 247 0 min -6,6 C -5,8 C 0,0 km/h (0 Bft)
22.12.2021 23:15 -4,8 C 5,3 C -5,2 C -5,1 C -5,7 C 0,0 C 88 % 93 % 1024,5 hPa 0,0 l/m 0,0 km/h (0 Bft) W-SW 247 0 min -6,5 C -5,7 C 0,0 km/h (0 Bft)
22.12.2021 23:20 -4,8 C 5,3 C -5,2 C -5,1 C -5,8 C 0,0 C 88 % 93 % 1024,5 hPa 0,0 l/m 0,0 km/h (0 Bft) W-SW 247 0 min -6,5 C -5,8 C 0,0 km/h (0 Bft)
22.12.2021 23:25 -4,8 C 5,3 C -5,2 C -5,1 C -5,7 C 0,0 C 88 % 93 % 1024,5 hPa 0,0 l/m 0,0 km/h (0 Bft) W-SW 247 0 min -6,5 C -5,7 C 0,0 km/h (0 Bft)
22.12.2021 23:30 -4,7 C 5,3 C -5,2 C -5,0 C -5,7 C 0,0 C 88 % 93 % 1023,8 hPa 0,0 l/m 0,0 km/h (0 Bft) W-SW 247 0 min -6,4 C -5,7 C 0,0 km/h (0 Bft)
22.12.2021 23:35 -4,7 C 5,3 C -5,1 C -5,0 C -5,6 C 0,0 C 88 % 93 % 1023,8 hPa 0,0 l/m 0,0 km/h (0 Bft) W-SW 247 0 min -6,4 C -5,6 C 0,0 km/h (0 Bft)
22.12.2021 23:40 -4,7 C 5,3 C -5,1 C -5,0 C -5,5 C 0,0 C 88 % 93 % 1023,8 hPa 0,0 l/m 0,0 km/h (0 Bft) W-SW 247 0 min -6,4 C -5,5 C 0,0 km/h (0 Bft)
22.12.2021 23:45 -4,7 C 5,3 C -5,1 C -5,0 C -5,5 C 0,0 C 88 % 93 % 1023,8 hPa 0,0 l/m 0,0 km/h (0 Bft) W-SW 247 0 min -6,4 C -5,5 C 0,0 km/h (0 Bft)
22.12.2021 23:50 -4,7 C 5,3 C -5,1 C -5,0 C -5,5 C 0,0 C 88 % 93 % 1023,3 hPa 0,0 l/m 0,0 km/h (0 Bft) W-SW 247 0 min -6,4 C -5,5 C 0,0 km/h (0 Bft)
22.12.2021 23:55 -4,9 C 5,3 C -5,1 C -5,2 C -5,7 C 0,0 C 88 % 93 % 1023,3 hPa 0,0 l/m 0,0 km/h (0 Bft) W-SW 247 0 min -6,6 C -5,7 C 0,0 km/h (0 Bft)
_ Min-Zeit 23:55 12:50 23:15 23:05 23:05 00:00 14:10 13:30 23:50 - 00:00 - - - 23:05 23:05 00:05
Minimum _ -4,9 C 5,1 C -5,2 C -5,2 C -6,0 C 0,0 C 74 % 83 % 1023,3 hPa - 0,0 km/h (0 Bft) - - - -6,6 C -6,0 C 0,0 km/h (0 Bft)
_ Max-Zeit 14:05 00:05 13:50 14:25 14:25 11:30 10:10 08:10 03:10 00:00 13:50 - - 11:20 13:15 14:25 13:25
Maximum _ 1,9 C 5,9 C 0,7 C 4,1 C 4,1 C 5,4 C 88 % 93 % 1029,6 hPa 0,0 l/m 2,4 km/h
N-NO (1 Bft)
- - 5 min -2,0 C 4,1 C 6,4 km/h
S (2 Bft)
Durchschnitt _ -2,1 C 5,5 C -2,7 C -1,9 C -2,5 C 0,4 C 84 % 90 % 1027,7 hPa #0,0 l/m 0,1 km/h (0 Bft) W-SW - #40 min. -4,4 C -2,5 C 0,3 km/h (0 Bft)
2021 www.wetterstation-wechselburg.de